{"data":{"norad_id":61521,"epoch":"2026-05-25T03:50:05.272800Z","epoch_age_seconds":61909,"freshness":"FRESH","line1":"1 61521U 24183N   26145.15978325  .00000338  00000+0  23543-4 0  9995","line2":"2 61521  53.1586 147.0081 0001121  85.4445 274.6683 15.30195187 91366","mean_motion":15.30195187,"eccentricity":0.0001121,"inclination_deg":53.1586,"raan_deg":147.0081,"arg_perigee_deg":85.4445,"mean_anomaly_deg":274.6683,"bstar":2.3543e-5,"rev_number":9136,"period_min":94.105641700728,"perigee_km":474.4611778295,"apogee_km":475.99770258539,"semimajor_km":6853.3664402074,"source":"CELESTRAK","updated_at":"2026-05-25T13:38:19.393693Z"}}